This is the latest recevied weather packets stored in our database for station/object BG5HLN-13. If no packets are shown the sender has not sent any weather packets the latest 10 day(s).
| Time | Temp. | Humidity | Pressure | Rain* | Wind** | Luminosity | Snow |
|---|---|---|---|---|---|---|---|
| 1777713559 | 23.33° C | 81% | 1003.9 hPa | 0 mm | - | - | - |
| 1777712960 | 23.33° C | 81% | 1003.9 hPa | 0 mm | - | - | - |
| 1777712360 | 23.33° C | 79% | 1003.9 hPa | 0 mm | - | - | - |
| 1777711760 | 23.89° C | 81% | 1003.9 hPa | 0 mm | - | - | - |
| 1777711161 | 23.89° C | 82% | 1003.8 hPa | 0 mm | - | - | - |
| 1777710560 | 23.89° C | 81% | 1003.9 hPa | 0 mm | - | - | - |
| 1777709960 | 23.89° C | 79% | 1004 hPa | 0.25 mm | - | - | - |
| 1777709360 | 23.89° C | 79% | 1003.8 hPa | 0.25 mm | - | - | - |
| 1777708760 | 23.89° C | 81% | 1003.9 hPa | 0.25 mm | - | - | - |
| 1777708160 | 23.89° C | 80% | 1004.2 hPa | 0.25 mm | - | - | - |
| 1777707560 | 23.89° C | 77% | 1004.4 hPa | 0.25 mm | - | - | - |
| 1777706960 | 23.89° C | 75% | 1004.4 hPa | 0.25 mm | - | - | - |
| 1777706359 | 24.44° C | 76% | 1004.5 hPa | 0 mm | - | - | - |
| 1777705760 | 24.44° C | 72% | 1004.8 hPa | 0 mm | - | - | - |
| 1777705160 | 24.44° C | 72% | 1004.8 hPa | 0 mm | - | - | - |
| 1777704560 | 24.44° C | 72% | 1004.9 hPa | 0 mm | - | - | - |
| 1777703960 | 24.44° C | 71% | 1005.2 hPa | 0 mm | - | - | - |
| 1777703359 | 24.44° C | 70% | 1005.2 hPa | 0 mm | - | - | - |
| 1777702760 | 25° C | 68% | 1005.3 hPa | 0 mm | - | - | - |
| 1777702160 | 25° C | 64% | 1005.3 hPa | 0 mm | - | - | - |
| 1777701560 | 25.56° C | 63% | 1005.4 hPa | 0 mm | - | - | - |
| 1777700959 | 25.56° C | 63% | 1005.5 hPa | 0 mm | - | - | - |
| 1777700359 | 26.11° C | 64% | 1005.6 hPa | 0 mm | - | - | - |
| 1777699759 | 26.11° C | 64% | 1005.8 hPa | 0 mm | - | - | - |
| 1777699159 | 26.11° C | 62% | 1006.1 hPa | 0 mm | - | - | - |
* Rain latest hour (hover to see other rain measurements)
** Current wind speed in m/s (hover to see current wind gust speed)